Location: Niagara
(43.2500°N, 79.0670°W)
Time: 05:15:48
(UTC-04:00)

ISS - Pass Details

Date: 11 October 2017
Orbit: 401 x 408 km, 51.6° (Epoch: 19 October)

Event Time Altitude Azimuth Distance (km) Brightness Sun altitude
Rises 20:25:10 0° 302° (WNW) 2,327 1.2 -20.0°
Reaches altitude 10° 20:27:15 10° 301° (WNW) 1,465 0.0 -20.4°
Enters shadow 20:30:15 71° 280° (W) 431 -3.7 -20.9°
